EZY72PR EKCH-EDDB

Flight info

Callsign EZY72PR
Flight time 0h 37m
Altitude 28000
Route NEXEN T503 MICOS/N0425F230 Z990 IRKIS L619 VIBIS T209 OGBER
Aircraft A320/M-SDE3FGHIRWY/LB1

Departure

Time 2026-05-04 17:14
Airport Copenhagen Kastrup Airport (EKCH)

Arrival

Time 2026-05-04 17:51
Airport Berlin Brandenburg Airport (EDDB)
Time Latitude Longitude Altitude Speed Heading
2026-05-04 16:26 55.62719 12.64096 19 ft 0 kts 33°
2026-05-04 17:02 55.62706 12.64081 19 ft 3 kts 37°
2026-05-04 17:02 55.62679 12.64031 18 ft 3 kts 66°
2026-05-04 17:03 55.62674 12.64000 19 ft 3 kts 105°
2026-05-04 17:03 55.62678 12.63984 17 ft 1 kts 123°
2026-05-04 17:03 55.62679 12.63980 17 ft 0 kts 123°
2026-05-04 17:07 55.62661 12.64031 17 ft 6 kts 123°
2026-05-04 17:07 55.62652 12.64055 17 ft 8 kts 123°
2026-05-04 17:07 55.62590 12.64221 17 ft 12 kts 123°
2026-05-04 17:07 55.62547 12.64337 17 ft 11 kts 123°
2026-05-04 17:08 55.62508 12.64442 18 ft 10 kts 123°
2026-05-04 17:08 55.62420 12.64465 17 ft 7 kts 195°
2026-05-04 17:08 55.62375 12.64444 17 ft 6 kts 195°
2026-05-04 17:09 55.62342 12.64428 17 ft 0 kts 195°
2026-05-04 17:10 55.62173 12.64322 16 ft 23 kts 208°
2026-05-04 17:11 55.62020 12.64195 17 ft 25 kts 205°
2026-05-04 17:11 55.61874 12.64077 17 ft 22 kts 197°
2026-05-04 17:11 55.61656 12.64088 21 ft 8 kts 186°
2026-05-04 17:12 55.61614 12.64056 22 ft 7 kts 221°
2026-05-04 17:12 55.61529 12.63923 19 ft 12 kts 220°
2026-05-04 17:13 55.59974 12.61503 261 ft 158 kts 223°
2026-05-04 17:14 55.57310 12.57446 1784 ft 196 kts 225°
2026-05-04 17:14 55.56189 12.55821 2093 ft 221 kts 219°
2026-05-04 17:14 55.53432 12.52385 3252 ft 256 kts 217°
2026-05-04 17:15 55.51949 12.50599 4143 ft 260 kts 217°
2026-05-04 17:15 55.48946 12.46975 6015 ft 263 kts 218°
2026-05-04 17:16 55.45914 12.43298 7775 ft 266 kts 218°
2026-05-04 17:16 55.41262 12.37617 10234 ft 278 kts 219°
2026-05-04 17:17 55.39611 12.35592 10521 ft 300 kts 219°
2026-05-04 17:17 55.33868 12.28598 10994 ft 367 kts 218°
2026-05-04 17:18 55.31726 12.26011 11377 ft 377 kts 218°
2026-05-04 17:18 55.27381 12.20782 12594 ft 384 kts 218°
2026-05-04 17:19 55.22944 12.15449 13816 ft 389 kts 218°
2026-05-04 17:19 55.18472 12.10017 14856 ft 394 kts 219°
2026-05-04 17:20 55.14027 12.04328 15855 ft 398 kts 220°
2026-05-04 17:20 55.09547 11.98513 16823 ft 404 kts 220°
2026-05-04 17:20 55.07281 11.95595 17301 ft 407 kts 219°
2026-05-04 17:21 55.02680 11.89732 18239 ft 412 kts 219°
2026-05-04 17:21 54.98154 11.84017 20047 ft 390 kts 219°
2026-05-04 17:22 54.95961 11.81258 20690 ft 388 kts 219°
2026-05-04 17:22 54.93768 11.78491 21175 ft 390 kts 219°
2026-05-04 17:23 54.86595 11.71763 22585 ft 410 kts 192°
2026-05-04 17:23 54.83704 11.71919 23015 ft 425 kts 173°
2026-05-04 17:23 54.78231 11.76406 23774 ft 443 kts 155°
2026-05-04 17:24 54.75557 11.79098 24126 ft 446 kts 155°
2026-05-04 17:24 54.67450 11.87249 25101 ft 452 kts 157°
2026-05-04 17:25 54.64707 11.89965 25372 ft 456 kts 157°
2026-05-04 17:25 54.59252 11.95337 26347 ft 452 kts 158°
2026-05-04 17:26 54.53820 12.00693 27386 ft 447 kts 159°
2026-05-04 17:26 54.45620 12.08712 27979 ft 464 kts 159°
2026-05-04 17:27 54.39902 12.14273 27982 ft 480 kts 159°
2026-05-04 17:27 54.34045 12.19996 27977 ft 485 kts 158°
2026-05-04 17:28 54.28177 12.25714 27980 ft 485 kts 158°
2026-05-04 17:29 54.19390 12.34214 27986 ft 486 kts 158°
2026-05-04 17:29 54.10563 12.42707 27955 ft 486 kts 158°
2026-05-04 17:30 54.01759 12.51148 27987 ft 483 kts 158°
2026-05-04 17:31 53.95904 12.56720 27993 ft 482 kts 158°
2026-05-04 17:31 53.87132 12.65024 27984 ft 481 kts 158°
2026-05-04 17:32 53.81296 12.70548 27939 ft 481 kts 157°
2026-05-04 17:33 53.72545 12.78817 27960 ft 479 kts 158°
2026-05-04 17:33 53.69627 12.81557 27964 ft 479 kts 158°
2026-05-04 17:34 53.60919 12.89695 27965 ft 479 kts 158°
2026-05-04 17:34 53.58005 12.92411 27962 ft 479 kts 158°
2026-05-04 17:35 53.49260 13.00540 27958 ft 478 kts 158°
2026-05-04 17:35 53.43425 13.05937 27932 ft 478 kts 157°
2026-05-04 17:35 53.40509 13.08631 27945 ft 478 kts 157°
2026-05-04 17:36 53.37595 13.11325 27950 ft 478 kts 157°
2026-05-04 17:36 53.34680 13.14013 27950 ft 478 kts 157°
2026-05-04 17:36 53.31758 13.16696 27854 ft 480 kts 157°
2026-05-04 17:36 53.28825 13.19384 27260 ft 480 kts 157°
2026-05-04 17:37 53.25899 13.22064 26687 ft 480 kts 157°
2026-05-04 17:37 53.22969 13.24741 26128 ft 480 kts 156°
2026-05-04 17:37 53.20072 13.27385 25586 ft 481 kts 156°
2026-05-04 17:37 53.17126 13.30076 25049 ft 483 kts 156°
2026-05-04 17:38 53.14170 13.32773 24522 ft 484 kts 156°
2026-05-04 17:38 53.11216 13.35465 23973 ft 483 kts 156°
2026-05-04 17:38 53.08277 13.38141 23241 ft 479 kts 155°
2026-05-04 17:38 53.05375 13.40780 22411 ft 473 kts 155°
2026-05-04 17:39 52.99652 13.45957 20748 ft 463 kts 155°
2026-05-04 17:39 52.96831 13.48498 19943 ft 459 kts 155°
2026-05-04 17:39 52.94042 13.51013 19158 ft 454 kts 155°
2026-05-04 17:40 52.91273 13.53507 18395 ft 450 kts 155°
2026-05-04 17:40 52.88585 13.55928 17557 ft 430 kts 155°
2026-05-04 17:40 52.86015 13.58246 16724 ft 413 kts 155°
2026-05-04 17:40 52.83535 13.60475 15904 ft 398 kts 155°
2026-05-04 17:41 52.81139 13.62619 15113 ft 386 kts 155°
2026-05-04 17:41 52.78803 13.64698 14343 ft 376 kts 155°
2026-05-04 17:41 52.76524 13.66726 13506 ft 369 kts 155°
2026-05-04 17:41 52.74283 13.68715 12584 ft 363 kts 155°
2026-05-04 17:42 52.72080 13.70671 11682 ft 356 kts 155°
2026-05-04 17:42 52.69914 13.72593 10815 ft 350 kts 155°
2026-05-04 17:42 52.67784 13.74467 9969 ft 344 kts 155°
2026-05-04 17:42 52.65704 13.76262 9073 ft 339 kts 155°
2026-05-04 17:43 52.63625 13.78039 8166 ft 334 kts 155°
2026-05-04 17:43 52.61572 13.79775 7291 ft 329 kts 155°
2026-05-04 17:43 52.59542 13.81472 6430 ft 325 kts 155°
2026-05-04 17:43 52.57534 13.83126 5542 ft 321 kts 155°
2026-05-04 17:44 52.55546 13.84730 4775 ft 314 kts 155°
2026-05-04 17:44 52.53646 13.86233 4465 ft 292 kts 155°
2026-05-04 17:44 52.51874 13.87627 4163 ft 274 kts 155°
2026-05-04 17:44 52.50174 13.88782 3842 ft 256 kts 169°
2026-05-04 17:45 52.48460 13.89016 3556 ft 243 kts 185°
2026-05-04 17:45 52.46808 13.88512 3195 ft 242 kts 200°
2026-05-04 17:45 52.45319 13.87316 3001 ft 233 kts 216°
2026-05-04 17:45 52.44113 13.85597 3005 ft 229 kts 230°
2026-05-04 17:46 52.43206 13.83471 3005 ft 227 kts 244°
2026-05-04 17:46 52.42602 13.81105 3009 ft 220 kts 250°
2026-05-04 17:46 52.42072 13.78832 3004 ft 210 kts 250°
2026-05-04 17:46 52.41562 13.76648 3000 ft 196 kts 250°
2026-05-04 17:47 52.41083 13.74600 2941 ft 190 kts 250°
2026-05-04 17:47 52.40617 13.72609 2734 ft 186 kts 250°
2026-05-04 17:47 52.40158 13.70651 2494 ft 184 kts 250°
2026-05-04 17:47 52.39711 13.68748 2283 ft 176 kts 250°
2026-05-04 17:48 52.39291 13.66958 2045 ft 167 kts 250°
2026-05-04 17:48 52.38873 13.65181 1816 ft 163 kts 250°
2026-05-04 17:48 52.38472 13.63477 1608 ft 162 kts 251°
2026-05-04 17:48 52.38076 13.61795 1393 ft 154 kts 250°
2026-05-04 17:49 52.37703 13.60214 1166 ft 148 kts 251°
2026-05-04 17:49 52.37335 13.58653 1020 ft 145 kts 251°
2026-05-04 17:49 52.36971 13.57108 876 ft 146 kts 251°
2026-05-04 17:49 52.36597 13.55563 691 ft 147 kts 252°
2026-05-04 17:50 52.36246 13.53989 459 ft 148 kts 251°
2026-05-04 17:50 52.35868 13.52432 242 ft 145 kts 251°
2026-05-04 17:50 52.35512 13.50974 157 ft 127 kts 252°
2026-05-04 17:50 52.35267 13.49840 157 ft 82 kts 249°
2026-05-04 17:51 52.35124 13.49262 154 ft 40 kts 247°
2026-05-04 17:51 52.35075 13.48909 154 ft 27 kts 272°
2026-05-04 17:51 52.35093 13.48708 154 ft 9 kts 279°
2026-05-04 17:51 52.35096 13.48682 154 ft 0 kts 280°
2026-05-04 17:52 52.35096 13.48681 154 ft 0 kts 280°
2026-05-04 17:52 52.35100 13.48643 154 ft 6 kts 280°
2026-05-04 17:52 52.35108 13.48583 154 ft 10 kts 288°
2026-05-04 17:52 52.35170 13.48541 154 ft 11 kts 23°
2026-05-04 17:53 52.35205 13.48641 154 ft 12 kts 68°
2026-05-04 17:53 52.35248 13.48817 154 ft 19 kts 69°
2026-05-04 17:53 52.35296 13.49023 154 ft 20 kts 69°
2026-05-04 17:53 52.35348 13.49239 154 ft 13 kts 69°
2026-05-04 17:54 52.35369 13.49331 154 ft 12 kts 69°
2026-05-04 17:54 52.35400 13.49461 154 ft 14 kts 69°
2026-05-04 17:54 52.35438 13.49617 154 ft 14 kts 69°
2026-05-04 17:54 52.35472 13.49759 154 ft 13 kts 69°
2026-05-04 17:55 52.35503 13.49893 154 ft 14 kts 69°
2026-05-04 17:55 52.35541 13.50051 154 ft 16 kts 69°
2026-05-04 17:55 52.35584 13.50234 154 ft 19 kts 69°
2026-05-04 17:55 52.35634 13.50444 154 ft 21 kts 69°
2026-05-04 17:56 52.35689 13.50674 154 ft 21 kts 69°
2026-05-04 17:56 52.35724 13.50804 154 ft 10 kts 53°
2026-05-04 17:56 52.35793 13.50812 154 ft 12 kts 340°
2026-05-04 17:56 52.35880 13.50756 154 ft 15 kts 338°
2026-05-04 17:57 52.35979 13.50694 156 ft 12 kts 339°
2026-05-04 17:57 52.36050 13.50653 154 ft 9 kts 357°
2026-05-04 17:57 52.36078 13.50715 154 ft 6 kts 71°
2026-05-04 17:57 52.36091 13.50772 154 ft 3 kts 69°
2026-05-04 17:58 52.36092 13.50777 155 ft 0 kts 69°